{"data":{"norad_id":68662,"epoch":"2026-09-19T21:10:15.162816Z","epoch_age_seconds":98155,"freshness":"FRESH","line1":"1 68662U 26077A   26262.88211994  .00011167  00000+0  34767-3 0  9995","line2":"2 68662  97.2849 132.7142 0001890  91.1155 269.0304 15.33447919 24915","mean_motion":15.33447919,"eccentricity":0.000189,"inclination_deg":97.2849,"raan_deg":132.7142,"arg_perigee_deg":91.1155,"mean_anomaly_deg":269.0304,"bstar":0.00034767,"rev_number":2491,"period_min":93.90602590136,"perigee_km":464.24103569006,"apogee_km":466.82794351313,"semimajor_km":6843.6714896016,"source":"CELESTRAK","updated_at":"2026-09-20T09:00:43.949032Z"}}